Theta_e
293 294 295 296 297 298 298 297 297 297 296 296 296 296 296 295 295 295 294 295 296 298 304 312 314 313 313 313 312 312 312 311 311 311 310 310 311 312 312 312 312 312 312 312 312 311 311 310 309 309 308 306 303 302 302 302 302 301 302 302 302 303 303 303 302 298 295 295 295 295 296 297 296 296 296 297 298 298 297 297 297 296 296 296 295
289 292 294 295 296 297 297 297 297 297 296 296 296 296 295 295 295 295 294 294 295 296 300 308 313 313 313 313 312 312 312 311 310 310 310 310 311 311 311 311 311 311 311 311 311 310 310 310 309 309 308 306 305 303 302 302 301 300 300 301 301 302 302 302 300 297 295 295 294 294 295 296 296 296 297 297 297 297 296 296 296 295 295 295 294
285 288 292 294 295 296 296 297 297 297 297 296 296 296 296 295 295 294 294 294 294 296 297 303 311 314 313 313 312 311 311 310 310 310 310 310 310 310 310 310 310 311 310 310 310 309 309 309 308 308 307 306 305 304 303 302 302 301 300 300 300 300 301 300 299 297 295 294 294 293 294 294 295 296 296 297 296 296 296 295 295 295 295 294 293
283 286 289 292 294 295 296 296 297 297 297 297 297 296 295 295 295 294 294 293 294 295 296 299 306 313 313 312 312 311 310 310 310 310 310 310 310 310 309 309 310 311 310 310 309 309 308 308 308 307 306 305 305 304 303 302 302 301 300 299 299 299 299 299 298 297 295 294 294 293 293 294 294 295 295 295 295 295 295 295 294 294 294 293 293
281 284 285 287 289 292 294 295 296 297 297 297 297 296 295 295 295 294 294 294 293 294 296 297 302 311 313 312 312 311 310 310 310 309 310 310 311 311 310 309 309 310 310 309 309 309 308 308 307 307 305 305 304 303 303 303 302 301 300 298 298 299 299 299 298 297 296 295 294 293 293 293 293 293 294 294 294 293 293 293 293 293 292 292 292
279 281 283 284 285 288 291 292 294 295 296 297 297 296 295 295 295 294 293 293 293 293 295 296 299 308 313 312 312 312 310 309 309 309 310 310 311 311 310 309 309 310 310 309 309 309 309 308 308 307 306 305 305 304 304 303 302 301 300 299 298 298 299 299 298 298 297 295 294 293 293 293 293 292 293 293 293 292 292 292 292 292 292 291 291
278 279 280 281 282 284 287 290 292 294 295 296 296 296 295 294 294 294 293 293 293 292 293 294 297 305 312 312 312 311 310 309 309 309 310 310 310 310 310 309 309 309 310 309 308 309 309 308 308 307 306 306 305 305 304 303 303 302 301 301 299 298 298 299 298 297 296 295 294 294 293 293 292 292 292 292 292 292 291 291 291 291 291 291 290
278 278 279 279 279 280 282 285 288 290 293 295 296 296 295 294 294 294 293 293 293 292 293 294 295 302 311 312 312 311 310 309 309 309 309 310 310 310 310 309 309 309 309 308 308 308 308 308 308 307 307 306 305 305 303 302 302 302 302 302 299 298 298 298 298 297 296 295 294 294 293 293 293 292 291 291 292 292 291 291 291 290 290 291 290
277 278 278 278 279 279 279 281 282 285 288 291 293 294 294 294 293 293 293 293 293 292 293 293 294 300 310 312 311 311 310 309 309 309 309 309 309 310 309 309 309 309 309 308 307 307 307 307 307 307 306 305 304 303 302 302 303 302 302 301 299 298 298 298 297 297 296 295 295 294 294 293 293 292 291 291 292 292 291 291 291 291 291 291 290
277 277 278 278 279 279 279 279 280 281 283 286 289 291 292 293 293 293 293 293 293 293 293 294 294 299 309 311 310 310 309 309 309 309 309 309 309 309 308 308 308 308 307 307 307 306 305 305 306 306 306 304 303 302 303 303 304 303 302 301 299 298 298 298 297 297 296 296 295 295 294 294 293 292 292 292 292 292 291 292 292 291 291 291 291
277 277 278 278 279 279 279 279 279 280 281 283 285 287 289 291 291 292 293 292 293 293 293 294 294 299 308 311 309 309 309 309 310 309 309 309 309 308 307 307 307 306 306 306 306 305 304 304 304 304 304 304 303 303 304 304 304 303 302 301 299 298 298 298 298 298 297 296 296 295 295 294 293 292 292 292 292 292 291 291 292 292 291 292 291
276 277 277 278 279 279 279 279 279 279 280 281 283 284 286 289 290 291 292 292 293 293 293 294 295 300 308 311 309 309 309 310 310 310 309 310 309 309 308 306 306 305 305 305 305 304 303 303 303 303 302 302 303 303 303 303 304 303 302 301 299 298 298 298 298 298 298 297 296 295 295 295 294 293 293 292 292 292 292 291 292 292 291 292 292
276 276 277 278 279 279 279 279 279 279 279 281 282 284 285 287 289 290 291 292 293 293 294 294 295 300 307 310 309 309 309 309 310 310 309 309 310 309 308 306 305 305 305 304 304 303 303 302 302 302 301 301 301 301 301 301 302 302 301 301 299 299 298 298 298 298 298 298 297 296 296 296 294 293 294 294 293 292 292 291 292 291 291 291 292
275 276 277 278 278 279 279 279 279 279 279 280 282 284 285 287 288 290 291 292 293 294 294 294 295 300 307 309 309 308 309 309 310 310 309 309 309 309 308 307 306 305 305 304 304 304 303 302 301 301 300 300 299 299 300 300 300 300 299 299 298 298 298 298 298 298 298 298 298 297 297 297 297 297 296 294 294 293 292 292 291 292 291 291 291
275 276 277 278 278 279 279 279 279 279 279 280 283 285 286 287 289 290 291 292 293 294 295 295 296 301 306 308 309 308 308 309 310 310 310 309 309 309 308 307 306 305 305 304 304 304 303 303 302 301 301 300 299 299 299 299 298 298 297 297 297 297 297 298 298 298 298 298 298 298 298 298 299 299 296 294 294 294 293 292 291 291 291 291 290
274 274 276 277 278 279 279 279 279 280 280 280 283 286 287 288 289 290 291 293 294 295 295 295 297 301 305 307 308 308 308 309 309 310 310 310 309 308 308 307 306 305 305 304 304 304 303 303 303 302 301 300 300 299 299 298 297 297 296 296 296 296 296 297 297 297 298 298 299 299 298 298 298 297 296 294 294 293 292 292 291 291 291 290 289
273 274 275 276 278 279 279 279 279 280 280 281 283 286 288 289 290 291 292 293 294 295 295 296 299 302 304 306 307 307 307 308 309 309 309 310 309 307 307 306 305 305 304 304 303 303 303 303 302 302 301 300 300 300 299 298 297 296 295 295 295 295 295 296 297 297 298 298 298 298 298 298 297 297 296 295 293 293 292 291 291 291 291 291 290
272 273 273 274 276 278 279 279 279 280 280 282 283 285 288 290 291 292 293 294 295 295 296 298 300 302 303 305 306 306 306 307 308 309 309 310 309 307 306 306 305 304 304 303 303 303 303 303 302 301 301 300 301 301 299 297 296 295 295 295 294 294 295 295 295 296 297 297 297 297 297 298 297 296 296 295 294 293 292 292 291 290 290 291 291
271 271 272 272 273 275 277 278 279 279 281 282 283 285 288 291 292 293 294 294 295 296 297 299 301 302 303 305 306 306 306 307 308 308 309 309 309 307 306 305 305 304 304 303 302 302 303 302 302 301 301 301 301 301 299 298 296 296 295 295 294 294 295 295 295 295 295 295 296 296 296 296 296 295 295 295 294 293 293 293 292 291 291 291 290
270 270 270 271 271 273 276 277 279 280 281 282 283 286 289 292 293 293 294 294 295 296 297 299 301 302 303 304 305 306 306 306 307 308 309 309 308 307 306 306 305 304 304 304 303 302 302 302 302 302 302 301 301 300 299 299 298 297 296 295 295 295 296 296 296 296 295 295 295 295 295 295 294 294 294 293 293 292 292 292 292 291 291 291 290
269 269 269 270 270 272 274 277 279 280 281 282 283 287 290 292 292 293 293 294 295 296 297 299 300 301 302 303 304 305 306 306 306 307 309 309 308 307 306 306 305 304 304 304 303 302 301 301 301 301 302 302 301 300 298 298 299 298 297 297 297 298 297 297 296 296 295 294 294 293 293 293 293 293 292 292 292 292 291 291 291 292 291 291 290
268 268 269 269 270 271 273 276 279 281 282 283 284 286 289 291 291 292 293 294 295 296 297 298 300 301 301 302 303 304 305 306 306 307 308 308 308 307 306 306 306 305 304 303 303 303 302 301 301 301 301 302 302 300 299 298 298 298 298 299 299 299 298 297 297 295 294 293 292 292 292 291 291 291 291 291 292 292 291 291 291 291 291 291 291
267 268 268 269 270 272 274 276 279 282 283 284 285 286 288 290 290 291 293 294 295 295 296 298 299 300 300 301 302 302 303 304 305 306 307 307 307 307 306 306 306 305 304 303 303 303 303 302 301 301 301 302 302 302 300 298 297 297 298 298 299 299 298 297 296 295 294 293 292 291 291 291 291 291 291 291 291 291 291 290 290 290 290 290 290
267 268 268 269 271 272 274 277 281 284 285 285 286 287 288 289 290 292 293 294 295 296 296 298 298 299 299 300 301 301 302 303 304 305 306 306 306 306 306 305 305 305 304 304 303 303 302 302 302 302 302 302 302 302 301 300 299 299 299 298 298 297 296 295 295 294 293 293 292 292 291 291 291 291 291 291 291 291 290 289 289 289 290 290 290
267 268 268 270 271 273 275 277 281 285 286 287 288 288 289 290 291 292 293 294 295 296 297 298 298 298 299 300 300 301 301 301 302 303 304 306 306 306 305 305 305 305 304 304 304 303 303 302 302 302 302 302 302 301 301 301 301 300 300 299 298 297 296 295 294 293 293 293 293 292 292 292 292 292 292 291 290 290 289 289 289 289 289 289 289
267 268 269 270 272 274 275 277 281 285 287 288 288 289 290 290 291 292 294 295 296 296 297 298 298 298 299 300 300 300 300 300 300 301 302 303 304 305 305 305 304 304 304 303 303 303 303 303 303 302 303 302 301 300 300 300 300 300 299 298 297 296 296 295 294 293 294 294 293 293 293 293 292 292 291 290 289 289 289 288 288 288 288 288 288
267 268 269 271 272 274 277 279 283 286 288 289 289 290 290 291 292 293 294 294 295 296 297 297 298 298 299 299 300 299 299 299 300 300 300 301 302 303 304 304 304 303 303 302 302 302 302 302 302 302 302 301 300 300 299 299 299 298 298 297 297 296 296 295 294 294 295 295 294 294 293 293 291 290 290 289 289 289 289 288 287 287 287 287 287
267 269 270 272 274 276 278 281 283 286 288 290 291 292 292 292 293 293 294 294 295 296 296 297 297 298 299 299 299 299 298 299 299 299 299 299 300 301 302 302 302 302 302 301 301 301 301 301 300 299 299 298 298 298 298 298 297 297 297 296 296 296 296 295 294 295 295 295 295 294 293 291 290 290 289 289 289 288 288 287 287 287 286 286 286
268 270 272 274 276 277 279 282 284 286 288 290 291 292 293 293 293 294 294 295 295 296 297 297 298 298 299 299 299 298 298 298 299 299 299 300 300 300 301 301 301 301 301 300 300 299 298 298 297 296 296 296 296 296 296 297 296 296 296 296 296 295 295 294 294 294 294 295 294 293 291 290 289 289 289 288 288 287 287 287 287 286 286 286 286
269 270 272 274 275 277 280 282 284 286 287 289 290 292 293 293 294 294 294 294 295 295 296 297 298 298 299 299 299 299 299 299 299 299 299 300 300 300 301 301 301 301 300 299 298 297 296 296 295 295 295 295 295 296 296 296 296 295 295 295 295 294 294 293 293 293 294 294 293 292 290 289 289 288 288 287 287 286 286 287 286 286 285 285 286
269 270 271 272 273 275 278 281 284 286 287 289 290 291 292 293 294 295 295 295 294 295 295 296 297 299 299 299 299 299 299 299 300 300 300 300 300 300 301 301 301 300 299 299 298 297 296 295 295 295 295 295 295 296 296 296 295 295 295 295 294 294 293 293 292 293 293 293 292 291 290 289 288 287 287 287 286 285 286 286 285 285 285 285 285
268 269 269 270 272 273 275 277 280 283 286 288 290 292 293 294 294 295 295 295 295 295 295 296 297 298 299 299 299 299 299 299 299 300 300 300 300 300 300 301 301 300 299 299 298 297 297 296 296 296 296 295 296 296 296 295 295 295 295 294 294 293 293 292 292 292 292 292 291 290 289 288 287 287 286 286 285 284 285 285 284 284 284 284 285
267 268 268 269 270 271 273 274 276 278 281 284 287 290 292 293 294 295 295 295 295 295 296 296 297 298 299 299 300 300 299 299 299 299 300 300 300 300 300 300 300 299 299 298 297 298 297 297 297 296 296 296 296 296 295 295 295 295 294 294 293 293 292 292 292 292 292 291 290 289 289 288 287 286 286 285 285 284 284 284 284 284 283 283 283
266 267 268 268 269 270 270 271 272 274 276 279 282 285 288 290 293 294 294 295 295 295 295 296 297 298 298 299 300 300 299 299 299 299 300 300 299 299 299 299 299 299 298 297 297 297 297 297 297 296 296 296 296 295 295 295 295 295 294 294 293 293 292 292 291 291 291 290 289 288 287 287 286 286 285 284 284 283 283 283 283 283 283 282 282
265 266 267 267 268 268 269 269 270 271 273 275 277 280 283 285 288 291 293 294 295 295 294 294 295 295 296 297 298 299 299 299 299 299 299 300 300 299 298 297 297 297 297 297 297 297 297 296 296 296 295 295 295 295 294 294 294 294 293 293 292 292 291 290 290 290 290 289 288 288 287 286 285 286 285 284 283 282 283 283 283 282 282 282 282
264 265 266 267 267 267 267 268 268 269 271 272 273 275 277 278 280 282 284 286 287 288 288 288 289 291 293 294 296 297 297 298 298 298 298 299 300 298 297 296 296 296 296 296 296 297 297 296 296 296 295 294 294 294 294 294 293 293 293 293 292 291 290 290 290 289 289 289 288 287 287 286 285 285 285 284 283 283 283 283 283 283 282 283 282
263 264 265 266 266 266 266 266 267 268 268 269 270 271 272 272 273 274 275 276 277 278 278 278 279 281 284 288 291 294 296 297 298 298 297 298 298 297 296 296 296 296 296 296 296 296 296 296 295 295 294 294 294 294 293 293 293 293 293 292 292 291 291 290 290 289 288 288 288 287 286 286 285 284 284 284 283 283 283 283 283 282 282 282 282
263 264 265 265 265 265 265 265 266 266 267 267 267 268 268 269 269 269 270 270 271 271 272 273 274 274 275 278 283 289 291 290 289 288 288 289 291 292 293 295 295 295 295 295 295 295 295 295 295 294 294 293 293 293 293 293 293 293 292 292 292 291 290 290 289 288 288 288 287 286 286 285 285 284 284 284 283 282 282 282 282 282 281 281 281
262 263 264 264 264 264 264 264 264 265 265 265 265 266 266 266 266 267 267 267 267 267 268 269 271 271 271 272 275 280 280 276 273 273 274 275 278 281 285 288 290 292 294 294 294 294 294 294 293 293 293 293 293 292 293 293 292 292 292 291 291 290 289 288 288 288 287 287 287 286 285 285 284 284 283 283 283 283 282 282 281 281 281 281 281
261 262 263 263 263 263 263 263 264 264 264 264 264 264 264 265 265 265 265 265 265 265 265 266 267 269 269 269 269 270 270 267 266 267 267 268 269 272 274 276 279 283 287 289 291 291 291 291 292 292 292 292 292 292 292 292 292 292 291 291 290 290 289 288 288 287 287 287 286 285 284 284 284 283 283 282 283 282 282 281 281 281 281 281 280
261 261 262 262 262 262 262 263 263 263 263 263 263 263 263 263 263 263 263 263 263 263 263 263 264 266 268 268 266 265 264 264 264 264 264 264 265 266 267 268 271 274 277 280 283 285 286 287 288 289 289 290 290 291 291 291 291 291 290 290 290 289 288 288 287 287 287 286 286 284 283 283 283 283 282 282 282 281 281 280 280 280 280 280 280
260 260 261 261 261 262 262 262 262 262 262 262 262 262 262 262 262 262 262 262 262 262 262 261 262 263 265 265 265 263 262 262 262 261 261 262 262 262 263 265 267 269 271 273 275 277 280 282 283 284 285 286 287 288 289 289 289 289 289 289 288 287 287 287 286 286 286 286 285 283 283 283 282 282 282 281 281 280 280 280 280 279 279 279 279
259 259 260 260 260 261 261 261 261 261 261 261 261 261 261 261 261 261 261 261 261 261 261 260 260 261 262 262 262 261 261 260 260 260 260 260 260 261 262 263 265 267 269 270 270 272 274 276 277 278 280 281 283 284 285 286 287 287 287 286 286 285 285 285 285 285 285 285 284 283 282 282 282 281 282 281 281 281 281 280 280 279 279 279 279
258 258 258 259 259 260 260 260 260 260 260 260 260 260 260 260 260 260 260 260 260 260 259 259 259 259 259 260 260 260 259 259 259 259 259 259 260 260 261 263 264 266 267 267 267 270 271 272 272 274 275 277 279 280 282 283 284 284 284 284 284 284 284 284 284 284 284 284 284 283 282 282 282 282 282 282 281 281 281 280 280 279 279 278 278
257 257 257 257 258 258 259 259 259 259 259 259 259 259 259 259 259 259 259 259 259 259 259 259 258 258 258 258 258 258 258 258 258 258 259 259 260 260 262 263 264 265 265 264 265 268 269 269 269 271 272 273 274 276 278 279 280 281 282 282 282 282 282 282 283 283 283 283 283 282 282 281 281 281 281 281 281 281 280 280 279 279 278 278 278
256 256 256 256 256 257 257 257 258 258 258 258 258 258 258 258 258 258 258 258 258 258 258 258 258 258 257 257 257 257 258 258 258 258 258 259 259 260 262 263 263 263 263 264 264 266 267 267 267 268 269 270 271 272 273 275 276 277 278 279 279 279 279 280 281 281 282 281 281 281 280 279 279 279 279 279 279 279 278 278 278 278 277 277 277
255 255 255 255 255 255 255 256 256 257 257 257 257 257 257 257 257 257 257 257 257 257 257 257 257 257 257 257 257 257 257 257 257 257 258 258 259 260 261 262 262 262 262 263 264 264 265 266 266 267 267 268 269 269 270 271 272 273 274 275 276 277 277 278 279 280 280 280 280 280 279 278 278 277 277 277 277 277 277 276 276 276 276 276 275
254 254 254 254 254 254 254 255 255 255 256 256 256 256 256 256 256 256 256 256 256 256 256 256 256 256 256 256 256 256 256 256 257 257 257 258 259 260 261 261 261 262 262 263 263 264 265 265 265 266 266 267 267 268 268 269 270 271 271 272 273 274 275 276 277 277 278 278 278 278 278 277 277 276 276 276 276 276 276 275 275 275 275 275 274
254 254 254 254 254 253 253 253 254 254 254 255 255 255 255 254 254 255 255 255 255 255 255 255 255 255 255 255 255 255 256 256 256 257 257 258 259 260 260 261 261 262 262 263 263 264 264 265 265 265 266 266 266 267 267 267 268 269 269 270 271 272 273 274 275 275 275 276 276 276 276 276 275 275 275 275 275 275 274 274 274 274 273 273 273
254 253 253 253 253 253 253 253 253 253 253 253 254 254 254 254 253 253 253 254 254 254 254 254 254 254 254 254 255 255 255 255 256 256 257 258 259 259 260 261 261 261 262 262 263 263 264 264 265 265 265 265 265 266 266 266 267 267 268 269 270 271 272 272 273 273 274 274 274 274 274 274 273 273 273 273 273 273 273 272 272 272 272 272 272
254 254 253 253 252 252 252 252 252 252 252 252 252 253 253 253 253 253 253 253 253 253 253 253 253 254 254 254 254 254 255 255 256 256 256 257 258 258 259 260 260 261 261 262 262 262 263 264 264 264 265 265 265 265 265 265 265 266 266 267 268 269 270 270 271 271 272 272 272 273 273 272 272 272 271 271 271 271 271 271 271 271 271 271 271
Wind_Speed
34 35 35 32 31 30 29 28 28 28 28 27 26 26 25 25 27 28 31 31 32 37 36 36 47 46 46 47 46 47 48 46 47 47 45 45 45 45 48 48 46 45 45 45 44 43 44 43 42 40 39 41 43 41 41 42 39 38 40 36 28 30 34 27 15 10 11 18 24 26 28 28 27 27 28 28 28 29 29 28 28 28 28 27 25
37 37 36 36 34 33 33 30 28 30 30 28 28 27 26 26 26 27 29 31 31 33 38 34 44 48 46 48 47 47 48 47 46 46 45 46 47 46 47 48 46 44 44 46 45 44 44 42 41 40 40 41 43 44 44 43 42 39 39 38 31 29 35 32 23 18 14 15 22 27 29 30 29 29 30 31 31 31 31 30 29 28 28 27 25
38 38 36 35 35 34 35 33 30 30 28 27 29 28 26 26 26 26 27 30 31 33 37 35 37 47 45 46 47 47 49 48 47 47 46 46 47 46 46 49 48 44 43 47 48 45 44 44 42 41 40 40 41 44 45 44 43 41 39 39 36 34 36 35 30 25 20 17 22 29 31 31 30 31 32 31 31 31 30 30 29 28 27 27 26
35 36 35 35 33 32 34 34 33 31 27 25 29 29 26 26 25 26 26 27 30 32 35 38 33 42 45 43 45 46 47 49 48 48 47 47 49 47 45 48 50 47 45 48 51 48 45 45 45 43 42 41 40 42 44 44 43 42 40 39 38 36 35 35 34 33 29 22 20 28 33 31 30 33 34 32 31 31 30 30 29 28 28 27 27
34 33 33 35 34 32 32 33 34 34 30 27 29 29 26 26 25 25 26 26 29 30 32 38 35 37 46 43 45 46 47 50 50 48 47 47 49 49 47 48 50 49 46 48 52 53 50 48 47 46 45 43 41 41 43 44 42 42 42 40 37 36 34 34 35 37 36 29 23 25 29 29 30 33 35 34 32 30 28 29 29 29 28 27 27
33 32 32 32 33 34 33 32 33 36 35 31 30 30 27 25 25 23 24 27 28 30 32 35 37 35 47 46 45 47 47 49 50 49 49 48 46 48 48 49 50 49 47 49 54 57 56 54 51 49 48 47 44 42 42 44 42 41 42 40 37 35 34 33 35 36 36 33 31 29 27 28 32 34 34 36 36 33 30 28 28 29 29 27 26
32 32 32 31 32 33 34 34 34 34 35 34 32 31 27 24 25 23 24 27 29 31 32 34 37 34 45 49 47 48 47 47 49 50 51 48 45 44 45 46 48 48 49 51 55 58 59 58 55 52 52 52 49 46 44 44 43 41 42 40 37 35 35 33 34 35 34 32 32 31 30 30 32 33 34 36 34 33 33 30 27 28 29 30 29
32 32 31 31 31 32 34 36 36 34 33 31 29 30 29 25 25 25 24 27 29 31 32 33 38 35 41 49 49 48 46 46 48 49 50 49 47 46 44 43 45 47 48 49 53 57 59 59 57 55 55 56 54 51 48 46 44 42 42 40 38 37 36 33 33 35 35 33 29 28 29 29 29 31 33 32 28 30 36 36 32 31 30 28 29
33 32 32 32 31 31 32 34 37 36 35 32 28 28 30 28 27 27 25 27 30 32 33 33 37 36 38 47 47 46 45 45 48 49 49 49 49 49 47 45 45 45 45 45 48 53 56 56 56 55 56 57 56 54 51 48 47 45 43 42 41 39 37 34 34 35 34 29 25 24 24 23 26 32 33 34 34 35 39 38 33 34 32 24 24
35 34 34 35 32 32 32 32 34 35 35 34 31 29 30 30 29 29 27 28 30 32 34 33 36 36 37 43 43 45 45 44 49 51 51 51 49 48 45 44 44 42 41 41 43 47 51 52 51 51 53 55 54 54 52 50 50 49 47 47 47 44 39 35 36 38 33 26 25 26 23 21 30 41 45 47 43 38 39 36 28 31 31 22 20
38 37 37 37 36 35 35 33 32 34 35 34 32 32 33 32 31 30 29 30 30 31 33 34 36 36 37 43 43 45 45 45 49 52 54 54 52 48 45 44 44 41 38 39 42 43 46 48 47 47 50 53 54 54 53 52 52 50 48 50 51 50 46 41 37 39 36 31 32 36 32 28 37 48 50 47 41 37 41 40 29 29 29 21 17
40 40 39 39 37 36 36 35 33 33 34 33 31 32 34 34 33 32 30 30 30 29 31 33 35 35 37 43 44 45 45 47 52 53 54 56 55 51 47 45 45 42 39 40 41 42 43 44 45 44 47 51 53 52 51 51 53 52 50 50 52 52 51 49 45 42 40 37 36 39 40 36 40 47 47 45 42 41 43 41 33 32 34 27 21
41 41 41 40 37 36 36 35 35 34 33 32 31 30 32 33 33 32 31 31 30 28 30 33 35 35 36 40 42 42 43 46 51 54 54 55 55 52 47 46 46 45 43 42 40 40 41 41 41 42 44 48 50 49 48 49 50 51 50 50 52 51 50 50 50 48 48 44 39 40 44 43 42 48 53 52 47 41 39 38 36 35 36 32 27
42 41 40 38 36 35 35 35 36 35 33 32 30 28 30 32 32 30 30 30 30 28 29 32 35 35 36 39 40 40 41 45 50 53 53 52 53 51 47 45 46 45 46 44 42 42 42 41 41 41 41 45 47 46 45 46 46 47 47 48 50 51 50 50 49 48 48 46 44 46 50 49 48 55 59 55 50 46 44 44 43 40 38 34 30
41 40 39 38 35 34 34 33 33 33 31 31 29 27 28 29 30 29 29 30 29 28 28 30 33 34 34 37 39 38 40 45 50 52 53 53 52 50 46 44 44 44 44 44 43 44 44 44 44 43 42 46 48 47 45 44 44 44 44 44 46 49 50 51 51 49 48 47 47 49 52 52 51 53 55 55 53 52 50 49 46 42 37 30 25
39 39 38 37 35 32 31 31 32 31 29 29 28 26 25 26 27 28 28 29 29 28 28 29 31 33 32 33 35 36 38 45 50 51 53 53 52 48 43 41 41 41 42 43 44 43 43 43 44 44 45 46 48 49 48 46 45 45 43 43 44 45 48 51 52 51 50 49 49 48 47 47 44 41 46 52 51 47 43 39 37 37 34 28 25
36 36 36 35 34 31 29 30 31 30 28 27 26 25 24 24 25 26 25 26 26 27 28 28 29 31 31 30 32 33 35 42 49 51 52 53 51 46 41 38 38 38 39 42 43 42 41 43 43 42 43 45 48 50 50 48 46 46 44 43 42 41 42 46 47 47 48 48 47 45 42 41 40 38 42 47 48 44 40 37 36 40 38 26 19
35 35 35 36 36 33 31 30 30 29 28 26 24 24 23 23 24 24 24 24 25 27 28 27 27 28 30 32 32 32 33 39 46 49 50 52 50 45 41 36 35 36 37 38 40 42 43 44 43 40 40 43 48 51 51 50 48 47 45 42 40 38 38 39 40 41 42 41 40 38 36 36 39 39 40 45 48 48 46 45 44 46 43 30 20
36 37 37 37 37 35 33 31 30 28 27 25 23 24 24 22 22 22 22 23 23 26 27 25 25 25 29 33 34 33 33 36 42 46 47 50 49 45 40 35 32 33 34 35 36 39 42 44 45 45 42 41 46 51 53 53 50 49 48 43 38 38 38 39 40 41 42 40 38 37 35 34 37 38 38 44 50 52 52 52 50 48 44 38 32
39 40 39 38 37 35 33 31 29 27 25 24 25 25 23 20 19 19 21 22 22 24 25 23 23 24 27 30 32 34 33 34 39 44 45 47 48 44 38 35 33 32 32 33 33 35 37 40 45 48 45 40 42 48 53 55 54 52 51 46 42 42 43 44 45 46 46 43 41 39 36 34 35 37 38 41 47 51 50 47 49 51 46 40 40
41 40 39 38 36 35 33 31 28 26 23 23 25 24 19 16 16 18 20 21 21 22 22 21 22 23 25 28 31 34 35 34 37 41 43 46 48 46 41 37 36 34 32 32 32 33 34 37 41 46 47 44 42 43 47 54 55 54 54 52 50 51 52 52 50 48 46 44 40 38 36 34 34 36 38 42 46 49 48 44 46 52 49 43 45
40 40 39 38 36 34 33 29 26 24 22 20 22 22 18 15 16 19 20 20 20 20 20 19 19 19 22 27 30 34 36 36 37 40 43 45 48 48 45 40 39 37 33 31 33 33 35 37 39 43 48 48 45 43 44 50 51 50 52 55 54 55 57 56 53 48 44 42 39 37 36 36 36 36 39 43 46 48 49 47 46 48 46 43 48
40 39 38 36 34 32 31 28 25 22 21 21 21 21 19 17 19 20 20 19 18 17 18 18 16 16 18 22 27 31 35 36 38 41 44 46 48 51 49 43 40 39 37 35 35 34 34 36 39 42 47 48 48 46 47 49 50 48 48 49 50 53 52 49 48 47 44 42 40 39 39 39 40 40 41 44 47 48 50 49 47 47 43 39 41
39 37 36 34 32 30 28 27 24 21 21 21 20 18 19 20 20 19 18 18 16 13 14 15 14 12 13 16 21 26 31 34 37 41 44 47 48 50 50 45 41 41 39 37 36 36 35 36 39 43 47 49 50 50 50 51 52 52 50 47 46 46 44 41 42 42 41 39 38 38 41 43 45 45 46 47 47 47 47 46 43 43 42 38 38
38 36 34 32 30 27 26 27 25 21 21 20 17 16 18 18 17 17 16 16 14 11 11 12 11 10 11 12 16 22 27 30 33 37 42 46 48 48 49 46 43 41 39 36 37 38 38 39 40 43 48 51 51 49 50 53 55 55 53 49 43 41 40 39 39 40 39 38 37 38 41 46 49 49 47 46 44 42 42 41 39 38 39 37 36
37 35 32 29 28 26 24 24 23 21 21 21 20 19 19 18 16 16 14 14 13 11 10 10 10 9 9 11 14 18 23 26 29 33 37 41 43 45 46 46 44 41 38 35 36 37 38 40 41 44 48 50 50 48 49 52 54 53 52 48 44 42 41 39 39 39 37 36 37 40 44 47 47 44 40 39 41 42 42 42 39 38 38 37 34
34 32 31 29 26 24 22 20 20 19 18 19 19 19 20 19 17 15 13 12 11 10 10 9 7 6 7 10 14 16 19 22 25 28 32 35 37 40 42 44 43 41 37 34 34 36 38 39 42 44 45 46 47 48 47 47 48 48 48 47 45 44 44 43 43 43 41 40 41 43 45 45 41 38 38 40 42 44 44 43 41 39 38 37 34
32 32 32 28 22 20 19 19 19 18 17 17 17 17 17 18 17 16 17 15 11 9 9 8 8 8 8 10 11 12 14 19 23 27 30 32 33 34 37 38 39 39 37 34 32 33 35 35 36 36 37 38 39 40 39 39 42 44 44 44 42 41 41 42 43 42 41 41 40 40 41 41 40 41 43 43 44 44 43 42 41 40 38 37 33
34 31 28 23 20 19 18 18 18 17 17 18 18 18 19 19 19 19 21 22 20 16 13 12 13 14 14 14 13 9 10 15 21 25 28 30 31 33 34 35 36 35 34 32 29 28 27 28 28 28 29 30 31 31 31 32 33 35 38 39 39 38 38 38 39 38 36 34 32 35 40 42 42 43 44 43 42 43 43 42 41 39 38 36 32
31 28 26 24 24 25 21 18 17 16 16 17 17 18 20 22 23 23 23 24 24 23 21 18 17 18 19 19 19 17 15 18 21 22 25 29 32 34 35 35 35 33 31 31 29 27 25 24 24 25 26 26 25 26 28 28 28 29 33 36 36 36 37 38 38 37 35 34 33 36 42 45 44 44 46 44 42 42 43 42 40 39 39 36 30
26 26 27 27 28 28 25 22 20 18 16 16 16 16 16 18 21 24 26 25 24 24 24 23 22 21 21 21 21 20 20 22 25 27 28 30 31 33 35 36 36 34 34 33 30 26 25 23 23 25 26 26 26 27 28 29 30 31 33 35 37 38 39 38 37 37 36 34 35 38 43 46 47 48 48 45 42 42 42 39 36 37 38 36 31
27 26 27 28 29 29 26 24 24 21 20 18 16 15 12 10 11 16 20 23 25 25 24 23 24 24 22 21 21 19 19 21 25 28 29 30 32 33 35 37 38 38 40 38 30 26 26 25 23 25 27 26 27 29 30 30 31 32 32 33 35 38 40 39 40 40 39 37 39 41 43 44 45 46 45 41 40 41 40 36 36 38 38 35 32
28 27 29 30 29 28 26 25 24 22 21 20 18 15 11 7 6 8 9 12 16 21 23 23 24 24 23 23 22 21 21 22 23 25 28 30 32 34 35 37 38 39 40 36 28 25 26 26 24 25 27 27 27 29 30 31 32 32 33 34 35 38 40 41 41 41 41 41 42 43 43 43 44 44 41 39 41 43 41 37 37 39 38 34 31
29 27 29 29 27 26 26 26 24 23 22 21 19 17 15 13 9 5 4 4 6 10 14 17 20 22 22 22 23 22 22 23 24 25 28 30 31 33 34 33 34 38 40 36 29 24 23 23 22 23 25 26 26 27 27 29 30 31 32 33 34 35 37 38 39 40 40 40 41 42 43 44 45 45 41 38 39 42 40 38 39 40 37 34 32
31 28 30 31 28 26 26 26 25 24 23 22 20 18 18 19 17 11 6 4 1 1 3 3 7 10 12 16 19 20 20 22 25 27 29 30 32 32 30 26 25 30 34 32 28 24 23 21 21 21 22 23 24 25 26 27 28 30 30 31 31 33 35 37 39 39 39 39 40 42 42 42 45 47 44 39 39 41 41 41 42 41 38 37 37
31 28 30 31 29 28 27 27 26 25 24 22 21 20 21 21 20 19 17 15 11 9 9 12 13 11 7 2 8 16 18 19 22 25 27 29 30 29 25 19 17 20 23 24 23 23 23 22 22 22 22 23 24 25 26 27 29 30 31 31 32 34 36 38 38 39 39 39 40 41 41 42 44 44 42 40 43 46 48 49 46 41 39 39 37
32 29 31 32 31 30 28 27 27 27 25 24 23 23 24 23 22 21 21 20 18 16 15 19 23 22 21 20 9 7 15 17 20 24 26 28 29 27 23 18 16 16 17 20 21 21 20 20 21 22 23 24 26 27 28 29 30 31 31 33 35 36 37 39 39 40 40 40 39 40 42 42 43 44 43 43 44 46 49 50 47 41 39 37 34
36 32 33 34 32 29 29 28 28 28 27 27 26 24 24 24 24 22 21 20 20 19 17 20 22 21 22 27 23 15 12 9 6 3 3 4 8 11 13 15 17 16 15 16 19 19 17 16 17 19 21 22 24 26 28 29 30 31 31 33 34 35 36 36 36 37 38 38 37 39 41 41 41 44 45 42 43 45 47 48 46 42 37 35 32
40 34 34 36 33 30 29 29 29 28 27 27 27 25 24 24 23 21 20 20 21 20 19 20 23 24 26 30 32 35 32 27 22 21 23 26 26 21 14 7 2 6 10 13 15 17 15 14 16 18 19 20 22 23 25 26 28 28 29 30 29 29 32 35 34 34 34 34 33 35 37 38 40 43 43 41 43 46 46 45 45 44 42 41 40
40 33 33 35 33 30 29 30 29 29 27 26 26 25 24 23 22 21 21 21 21 21 21 21 24 29 32 33 36 42 35 24 20 23 26 30 35 37 35 31 25 18 12 7 6 9 9 10 12 14 16 18 20 21 22 23 24 25 28 29 29 28 30 34 35 34 33 34 33 32 34 35 36 36 37 38 39 41 40 39 40 41 41 42 40
38 32 31 33 31 30 30 30 30 30 28 26 27 26 24 23 23 23 24 23 22 21 23 25 30 35 36 36 41 48 41 27 23 27 29 31 37 41 41 39 36 32 28 24 19 15 13 11 9 9 9 12 15 17 19 21 21 23 25 28 28 28 29 32 34 34 34 34 33 31 32 35 35 33 32 33 33 33 34 33 34 35 35 33 32
35 31 30 31 30 30 31 29 29 30 30 29 29 28 26 26 26 26 26 26 24 23 24 26 32 39 39 37 43 53 51 39 32 33 35 38 42 44 43 42 40 36 33 31 29 26 23 20 17 14 12 10 10 12 15 17 18 20 22 23 24 25 26 28 30 32 32 32 31 31 32 34 34 31 30 29 29 30 31 30 30 31 32 30 30
35 31 30 31 31 30 29 29 30 30 30 29 28 29 29 29 28 27 27 26 26 27 26 25 29 37 41 40 44 52 53 47 43 41 41 43 46 45 44 44 41 37 35 34 32 30 29 26 23 20 17 14 12 11 12 13 15 17 18 19 20 22 24 25 27 29 30 29 29 29 31 32 31 30 29 28 28 29 31 32 31 31 33 33 33
37 35 33 33 33 32 32 33 32 29 28 29 30 31 33 31 28 28 28 27 26 27 27 25 26 33 41 45 48 50 48 45 44 44 43 43 45 45 44 44 42 40 39 37 35 34 34 32 29 26 23 20 17 14 12 12 13 14 15 17 17 18 19 21 24 27 29 29 28 29 30 31 31 30 30 30 28 27 29 31 29 29 30 31 30
38 36 34 33 33 33 35 36 32 29 29 30 30 31 32 31 29 27 27 26 25 25 26 26 27 30 36 41 43 44 44 43 43 43 42 43 44 43 43 43 43 42 41 40 38 38 38 37 35 33 31 29 25 21 18 15 13 12 13 14 15 14 14 15 18 21 24 25 25 26 26 26 26 25 25 27 27 25 24 25 25 25 26 26 24
36 35 33 32 31 32 34 35 33 31 29 28 27 28 28 28 28 27 26 26 25 24 24 26 27 30 34 37 37 38 40 41 41 41 42 42 42 42 41 41 41 40 41 40 39 39 40 40 39 38 37 35 33 31 27 23 20 17 15 14 13 12 12 12 13 16 18 20 22 23 23 22 21 21 21 22 22 20 18 19 19 19 19 18 17
35 35 33 32 32 33 35 35 35 33 30 27 26 26 26 26 26 26 26 27 27 26 26 26 26 28 33 36 37 37 38 39 39 40 41 41 41 41 41 41 39 38 38 39 38 39 40 40 40 39 39 38 38 36 34 30 28 25 21 18 15 13 11 11 11 12 14 15 17 20 21 20 20 19 18 19 20 18 17 17 16 16 15 14 14
33 33 33 33 31 31 33 34 35 35 32 29 27 26 27 28 28 27 26 26 26 27 28 28 27 28 31 35 36 36 37 38 38 39 39 40 40 40 41 40 39 38 38 38 37 37 37 38 38 38 39 39 39 39 37 35 32 31 28 25 21 17 14 13 13 13 13 13 14 16 17 18 18 18 17 18 18 17 16 16 16 16 15 14 14
31 31 32 32 29 27 28 30 32 32 32 31 28 28 28 29 28 29 29 27 27 28 29 29 29 28 29 31 34 36 36 37 37 37 37 38 38 37 38 38 37 37 37 36 35 34 34 35 35 36 37 38 38 38 38 36 34 32 31 28 24 21 19 18 17 15 14 14 14 15 16 17 17 17 16 16 16 15 15 14 14 14 15 14 13
29 29 30 30 29 28 28 29 29 29 29 30 29 28 27 26 27 29 30 30 30 31 31 31 30 30 29 30 32 34 34 34 34 34 35 34 34 34 34 34 34 34 34 33 33 32 31 31 31 32 33 34 35 36 37 36 34 31 28 25 24 23 22 22 21 19 18 18 17 17 18 18 18 18 17 16 15 14 14 13 13 12 12 12 12
29 29 29 29 28 28 28 29 29 29 28 27 26 25 24 24 25 28 30 30 30 30 31 31 30 30 30 29 30 31 31 32 32 32 32 32 31 31 31 31 31 31 30 30 30 29 29 28 28 28 28 29 30 31 32 32 31 29 27 24 22 22 22 21 21 19 18 18 19 19 19 20 20 19 18 16 15 14 13 12 11 11 10 10 9
Wind_Direction
304 296 289 280 269 263 260 263 265 267 278 284 284 290 299 307 309 308 309 305 303 307 289 235 203 197 198 196 194 193 192 193 193 190 189 190 191 190 188 188 189 189 190 191 193 196 196 197 198 199 198 198 199 199 199 199 198 197 197 194 191 193 191 185 171 140 147 172 179 184 190 189 188 190 189 185 182 182 181 179 179 178 179 181 183
305 301 295 287 279 273 266 261 261 265 272 278 279 286 296 304 308 307 306 306 301 303 298 258 210 197 198 196 193 193 192 191 191 190 189 189 190 190 188 187 189 191 189 190 194 196 196 196 197 198 198 198 199 199 199 199 199 197 198 197 193 191 194 188 170 152 148 158 170 178 183 183 182 184 185 182 179 179 179 178 178 179 180 180 181
301 300 298 292 284 280 275 268 263 263 265 270 274 281 292 301 305 305 303 305 302 297 301 283 228 200 197 197 192 191 192 190 190 190 189 189 188 188 189 187 189 191 190 192 195 195 195 196 197 197 197 197 199 200 200 200 200 199 198 198 196 193 193 190 177 162 152 154 168 172 173 176 178 179 181 181 179 179 180 181 183 184 183 182 183
304 300 301 300 293 287 284 278 272 267 261 264 271 277 289 299 302 304 302 302 302 296 299 297 258 209 197 197 193 190 191 190 190 191 190 189 188 187 189 189 190 191 191 194 195 194 195 196 196 197 196 196 198 199 200 200 200 200 199 198 197 194 191 191 186 174 160 153 165 171 170 172 176 177 178 178 179 181 183 183 185 187 188 188 187
310 306 304 306 304 297 293 289 283 277 269 264 268 274 286 296 297 301 303 299 302 299 295 299 279 222 198 197 196 192 192 190 190 191 191 192 191 189 189 191 192 193 193 195 196 195 196 196 196 196 195 196 198 198 200 200 199 200 199 196 195 195 193 190 188 181 170 158 155 166 170 169 172 177 178 177 176 178 182 184 185 186 188 189 189
313 312 312 311 309 304 300 297 291 285 278 270 270 273 281 293 294 298 304 299 299 300 295 299 290 238 202 196 197 194 193 192 190 190 192 193 192 190 191 192 194 195 195 197 198 198 198 199 197 195 195 196 197 198 199 199 199 199 199 196 194 193 191 188 185 181 173 163 158 161 167 171 172 175 179 180 178 176 176 178 183 187 187 186 187
311 312 314 315 314 311 306 302 298 292 285 278 274 275 279 290 294 296 303 300 296 297 295 299 296 255 207 194 197 195 192 192 191 191 193 193 192 191 192 193 194 196 198 199 200 201 201 202 199 197 197 198 197 197 198 197 198 198 198 197 194 189 187 185 182 176 169 163 161 162 167 173 174 174 178 181 180 178 175 173 176 185 188 188 187
308 308 309 310 311 311 308 306 304 301 297 290 281 280 284 289 294 296 300 298 293 294 293 296 297 268 215 195 195 195 191 191 191 191 193 193 193 193 194 195 196 198 200 200 201 203 204 205 203 201 201 202 201 199 198 196 195 196 198 197 192 187 184 181 177 172 167 164 162 163 165 169 172 174 175 175 176 182 185 181 180 183 186 189 191
306 304 304 303 303 306 305 303 303 302 299 296 290 289 291 293 295 295 297 297 293 292 292 294 296 274 222 196 194 194 191 191 192 192 193 193 194 195 195 196 198 199 200 201 204 205 205 205 205 205 205 205 204 202 199 197 194 194 195 194 190 186 182 178 174 168 165 163 162 161 161 164 170 170 172 179 185 188 189 186 183 184 183 182 191
303 301 300 299 297 300 300 298 298 297 293 290 290 293 296 297 297 294 295 296 292 292 293 293 294 274 226 195 191 192 190 193 193 192 193 193 194 196 196 197 200 200 199 200 203 205 205 206 206 207 208 207 206 204 202 200 199 197 195 193 190 186 181 177 176 172 167 162 162 163 163 169 177 177 181 189 191 188 186 184 179 180 179 175 186
301 299 297 296 295 295 296 294 292 292 289 285 284 288 292 293 293 292 293 294 291 292 293 292 292 272 225 194 189 191 191 193 193 192 193 193 194 196 196 197 200 201 200 198 200 201 203 205 204 206 209 209 207 206 204 203 202 201 199 197 194 190 185 180 179 179 175 171 171 173 174 179 185 186 187 189 187 187 188 185 178 173 174 173 178
298 295 294 295 292 290 291 291 289 288 287 283 280 282 283 284 286 287 289 291 290 290 290 289 288 268 225 194 187 189 190 193 193 193 193 193 194 196 196 197 199 201 201 201 200 198 198 201 201 203 206 207 206 205 204 204 204 202 201 200 198 197 194 189 185 184 182 180 179 180 183 186 187 189 190 188 188 190 190 189 186 181 182 184 180
296 292 292 292 288 285 286 287 286 285 284 281 278 277 275 276 278 280 283 287 287 285 286 287 283 262 224 195 187 187 188 191 193 194 194 193 193 195 195 196 198 200 202 203 203 199 196 196 198 201 205 205 204 203 203 203 203 202 202 202 201 200 200 199 196 192 189 186 183 185 190 189 187 191 195 193 189 187 186 189 191 190 190 191 190
295 290 289 288 285 284 283 281 282 283 281 278 275 269 267 268 270 274 279 283 282 281 282 283 276 255 222 196 187 187 187 190 194 195 195 195 194 195 196 197 198 200 202 202 202 201 198 195 196 200 203 203 202 201 201 201 200 200 201 201 201 201 201 203 202 199 197 193 191 194 196 194 195 198 198 195 190 186 186 190 192 192 192 193 194
298 295 291 287 284 282 279 277 280 282 280 277 273 264 259 262 265 269 274 275 276 279 281 279 268 250 221 195 185 185 188 191 194 196 197 197 197 196 196 198 200 201 203 203 203 203 200 198 198 199 201 203 203 201 200 200 199 199 200 200 200 201 202 204 203 203 203 201 200 202 202 200 202 202 197 194 194 193 191 193 192 189 186 184 182
299 299 294 289 285 282 278 279 283 283 279 276 274 266 258 257 260 264 267 270 273 278 279 274 258 239 220 197 183 183 187 191 193 196 197 198 198 197 196 198 200 202 203 203 205 206 203 200 200 200 201 203 203 201 200 199 198 198 199 199 200 202 204 206 207 206 207 207 208 210 208 204 204 203 198 195 194 193 191 189 188 183 178 173 170
300 300 299 296 291 285 281 283 286 284 277 272 272 269 262 258 257 258 260 265 272 278 278 267 249 230 214 198 186 183 186 191 193 195 196 196 196 196 196 197 198 202 204 204 204 205 204 204 203 202 201 200 201 201 199 197 196 196 196 198 199 202 205 207 207 207 209 211 212 213 212 208 205 206 204 197 193 191 186 179 181 182 177 171 168
303 303 303 301 298 292 286 286 287 283 275 270 272 273 268 258 252 252 256 262 270 280 277 259 241 225 209 198 191 186 186 191 193 194 196 196 195 195 196 196 197 199 203 204 204 204 204 206 205 204 202 201 201 200 197 196 195 194 194 194 195 199 202 202 202 204 207 210 211 211 212 210 206 207 206 199 195 194 190 187 187 184 179 177 171
306 305 302 300 299 296 290 287 285 280 274 271 273 273 266 255 247 249 257 263 271 281 274 251 232 222 209 199 194 190 190 192 193 194 195 196 196 195 195 196 197 197 199 201 203 204 204 204 205 205 205 205 203 199 196 195 194 193 193 191 191 195 197 197 198 201 202 205 207 208 208 208 206 206 205 202 199 198 198 198 194 187 185 185 176
306 304 302 300 298 296 292 288 282 275 271 272 274 271 260 247 246 255 263 267 274 279 268 244 226 220 210 201 196 194 194 193 194 196 197 197 198 196 195 196 197 196 198 199 201 204 205 203 204 204 204 206 207 202 197 196 196 195 193 191 191 194 196 197 201 201 200 201 203 204 205 204 204 204 202 199 199 199 200 200 198 195 194 190 183
305 304 302 300 298 296 293 289 283 274 266 266 272 272 263 251 255 265 268 269 274 276 263 240 225 219 211 202 198 197 197 197 196 196 198 199 199 198 197 199 198 195 196 199 201 203 204 203 205 203 201 204 208 206 200 199 198 196 195 196 197 198 198 199 201 201 200 200 199 199 200 200 199 201 199 197 198 199 198 200 203 202 199 195 191
305 303 301 298 296 294 291 290 286 276 269 266 268 271 272 269 269 270 269 270 273 271 258 237 221 217 212 206 201 199 199 200 200 200 201 201 202 200 200 201 200 195 194 198 202 205 204 203 204 203 200 201 204 206 204 203 201 199 199 200 201 200 199 198 197 196 196 196 194 193 194 194 194 196 198 198 200 200 199 201 205 204 202 201 201
304 301 298 296 294 292 292 293 287 274 268 269 267 269 275 275 273 271 268 268 270 266 251 232 217 210 209 207 205 202 200 201 202 203 202 202 203 203 203 202 200 197 195 197 201 205 205 203 203 203 201 200 201 204 205 204 203 203 204 203 201 200 198 195 192 190 190 191 191 191 191 192 193 194 197 200 201 202 201 202 204 204 202 204 206
305 301 298 296 295 293 295 298 290 270 261 264 260 260 267 268 267 268 266 263 265 261 244 227 214 206 205 203 202 202 201 201 202 203 203 202 202 203 204 203 201 200 199 199 199 201 202 202 202 202 202 201 202 203 204 204 204 205 205 205 204 200 196 193 189 186 184 186 190 192 192 193 195 197 201 203 203 202 200 200 203 203 201 203 204
306 303 298 296 297 296 296 299 293 273 258 259 257 254 259 261 262 264 261 256 256 254 241 225 212 205 205 202 200 200 199 199 200 202 202 202 202 203 204 204 203 202 201 199 198 199 201 202 202 203 203 203 202 201 202 203 205 206 205 204 203 200 196 193 189 185 184 187 190 193 196 199 201 203 204 203 199 196 196 197 200 201 200 200 201
305 302 299 298 299 297 295 297 295 280 262 257 256 255 256 257 257 256 253 249 247 245 239 226 212 206 205 201 199 198 196 194 196 199 201 201 202 204 205 206 206 204 202 201 199 199 200 201 202 203 204 203 201 199 200 203 204 204 203 201 200 199 197 194 190 188 190 191 192 195 199 202 203 201 197 193 191 192 194 195 195 196 197 197 196
303 302 303 302 300 298 295 293 295 291 276 264 259 257 255 254 252 249 246 242 239 238 237 227 212 206 204 200 197 196 194 192 192 194 197 198 200 202 203 204 205 204 202 202 200 199 199 200 202 203 203 203 202 201 202 201 201 201 202 200 199 199 199 197 194 193 194 194 195 198 199 198 195 190 186 187 189 193 195 194 191 191 194 194 192
309 308 308 305 298 296 295 292 293 294 288 278 268 261 256 252 248 245 241 236 229 225 228 225 215 210 205 199 194 192 195 195 192 192 193 194 195 197 199 200 200 199 199 199 197 196 197 197 198 199 198 198 200 202 202 200 198 199 199 199 199 199 200 200 199 199 198 196 196 197 194 189 186 184 184 186 188 190 191 191 189 188 189 189 188
317 317 317 313 307 305 301 294 292 293 294 290 279 270 263 255 248 246 243 239 234 229 226 223 215 210 206 202 196 191 197 200 198 195 193 192 192 193 194 196 197 197 196 193 188 186 186 187 188 189 190 192 195 197 199 198 197 197 197 197 197 197 197 199 200 201 200 197 195 192 187 184 183 183 183 183 184 186 188 188 188 187 186 185 186
324 326 329 329 326 323 315 305 300 296 295 294 288 282 276 265 254 248 243 240 237 234 234 235 225 212 207 205 205 205 203 200 198 196 194 194 194 194 194 195 195 194 191 186 180 176 176 180 185 186 187 190 193 195 196 194 192 191 192 194 195 195 196 198 200 199 197 195 194 190 186 183 182 182 182 181 180 182 185 187 187 186 184 183 184
328 331 333 333 332 331 327 324 324 319 309 302 293 286 284 275 263 253 244 239 239 238 239 242 236 221 211 207 207 208 206 202 201 200 198 196 195 194 195 195 193 190 186 181 178 178 180 183 188 191 190 192 195 197 196 193 191 190 189 191 194 195 196 197 198 196 194 193 192 190 187 185 184 184 184 180 176 176 180 182 184 185 184 184 184
330 331 333 333 333 334 332 332 334 336 334 329 317 301 289 278 270 262 251 243 242 241 241 243 239 228 218 211 205 201 201 202 203 202 200 198 197 197 196 195 193 190 186 183 183 187 189 190 193 194 194 194 196 196 194 193 193 192 189 189 192 194 195 196 195 194 193 191 189 188 187 188 187 186 184 179 174 173 174 177 181 184 185 186 187
333 333 335 335 334 335 336 337 336 337 338 337 334 330 323 303 280 276 272 260 250 244 241 241 237 228 221 216 212 206 203 203 205 206 206 205 203 200 198 196 194 190 186 186 190 195 195 196 197 195 195 197 196 193 193 194 194 193 191 192 192 193 195 196 194 192 192 191 188 187 187 188 188 186 183 181 178 175 173 174 180 183 184 186 188
337 337 338 338 338 337 338 339 339 338 337 335 336 342 346 341 329 301 279 279 259 241 235 235 234 228 222 218 216 213 209 207 209 211 211 210 208 204 199 195 193 191 189 191 196 199 197 198 199 197 196 198 197 194 195 196 195 194 194 194 193 192 192 192 191 191 191 190 188 188 187 186 186 184 183 182 180 177 175 176 180 182 184 186 188
339 340 340 342 344 343 341 341 341 341 342 341 340 346 354 356 356 353 348 349 341 204 184 203 224 227 226 224 221 217 212 211 213 214 213 212 210 204 196 190 189 192 194 196 199 201 200 201 200 198 196 196 196 196 196 195 195 195 193 191 189 188 188 188 190 190 189 188 189 189 187 186 187 187 185 183 181 180 180 181 183 185 186 188 189
341 341 344 347 349 348 345 344 345 347 348 348 350 357 6 10 10 13 17 20 24 31 38 37 38 44 42 358 225 216 212 212 212 212 212 212 207 198 192 191 192 193 197 201 203 203 204 204 202 200 197 195 195 196 196 196 197 197 195 191 189 188 188 189 189 189 188 189 189 188 187 187 188 189 187 186 187 187 187 186 187 189 190 190 190
344 345 349 352 353 353 351 349 351 355 360 2 4 10 15 16 16 20 22 23 24 25 22 23 29 33 28 23 21 208 210 211 209 209 211 211 207 199 194 196 197 195 197 202 204 204 206 207 205 202 199 197 197 197 197 198 199 199 197 194 193 192 192 192 190 187 187 188 188 188 187 188 189 189 189 189 190 191 191 190 191 192 194 193 191
352 352 355 358 359 360 358 357 357 2 9 12 13 17 22 23 22 24 25 23 23 24 21 23 28 26 12 14 34 69 94 89 96 140 165 172 190 200 204 204 203 202 201 201 202 203 205 205 204 203 202 201 200 199 199 199 200 199 198 196 196 196 195 192 190 188 187 187 187 189 189 188 189 190 191 191 191 192 192 193 193 192 192 191 191
359 356 359 5 8 8 7 6 4 6 13 16 16 19 26 29 26 24 26 27 26 24 23 26 32 30 17 19 43 65 67 54 43 37 36 41 45 47 49 57 129 201 199 197 198 200 200 199 199 200 201 201 202 202 201 201 200 198 196 195 194 194 192 190 188 188 187 186 187 190 189 188 189 190 192 194 193 192 192 192 193 191 189 190 193
2 356 359 8 11 10 13 15 12 11 13 16 17 20 24 27 26 25 28 33 31 28 28 29 32 34 29 28 48 64 64 49 37 37 34 35 40 45 48 46 43 46 59 83 139 169 176 179 183 188 192 195 198 200 200 201 200 196 193 192 192 192 192 190 188 188 187 185 186 187 188 188 189 190 193 196 196 193 191 190 191 192 192 193 194
5 360 1 8 11 13 18 20 17 15 15 18 21 23 22 24 27 30 33 35 32 31 34 33 34 39 39 38 51 63 64 52 43 44 41 39 42 45 46 46 47 50 53 55 63 78 91 101 117 134 154 173 185 192 196 197 197 194 192 191 191 190 190 190 190 189 187 184 184 184 185 187 188 188 189 192 192 190 189 189 189 192 194 194 193
10 5 3 7 11 16 20 19 16 16 17 19 22 24 23 24 29 32 35 35 32 32 34 33 34 41 42 39 49 60 61 55 49 48 46 46 47 47 47 48 49 52 56 57 59 66 74 80 86 92 101 119 148 172 183 187 189 188 187 187 186 183 184 186 188 188 186 183 182 183 183 185 187 187 186 185 184 186 188 189 189 191 194 194 195
16 13 11 14 16 18 20 21 22 22 21 20 22 25 26 26 28 31 34 35 33 34 34 30 32 41 44 42 48 56 57 54 52 51 48 48 49 48 48 49 51 55 61 60 58 62 69 72 74 79 85 93 108 132 152 166 174 177 178 180 182 181 182 183 184 185 184 182 182 182 182 182 184 186 186 186 186 189 192 193 192 192 194 194 195
22 20 19 21 23 23 24 27 27 25 25 27 29 30 29 27 26 28 31 33 32 34 35 30 30 38 44 46 49 52 52 51 51 51 49 50 50 50 50 52 54 59 61 59 57 63 67 66 66 71 75 77 86 101 117 134 150 159 166 173 177 179 181 184 184 184 184 183 182 182 182 182 184 186 188 189 189 191 193 195 194 193 193 193 193
27 25 21 20 21 24 27 29 28 25 25 28 29 29 29 28 26 27 30 32 31 31 32 32 31 36 41 44 46 48 48 49 50 49 49 49 50 51 54 56 58 60 60 58 58 63 66 64 64 67 68 69 72 78 84 95 111 127 142 154 160 161 167 174 178 179 181 181 179 179 179 178 179 181 183 186 188 187 188 190 191 191 192 192 192
29 29 25 20 19 23 26 28 28 26 25 24 24 25 26 26 26 28 31 32 32 30 29 30 32 36 40 42 43 44 46 47 47 46 47 48 49 50 53 56 57 59 60 60 60 62 64 64 63 64 65 66 68 70 72 77 85 92 103 117 128 135 144 155 164 170 173 174 173 171 170 168 168 169 173 176 177 175 174 175 177 178 180 181 183
31 32 31 28 26 27 28 29 30 30 28 25 24 25 25 24 24 27 29 31 32 33 31 30 31 34 39 42 43 43 44 45 45 45 45 45 46 48 51 54 55 56 58 61 61 63 65 66 65 64 65 66 66 67 69 72 76 79 83 88 95 104 118 133 145 156 165 171 173 173 171 166 162 161 165 168 169 168 168 166 165 166 167 169 174
32 32 34 33 31 28 28 29 31 31 31 29 27 27 29 29 28 27 26 26 27 30 32 32 31 32 36 41 42 43 44 44 44 45 45 45 46 48 50 52 54 55 57 60 61 63 66 66 66 66 67 66 65 65 65 66 69 72 73 74 78 86 99 112 122 133 146 158 167 171 170 166 161 160 162 166 169 170 169 166 166 169 169 170 176
34 33 35 34 32 30 31 32 33 32 33 33 31 29 31 32 31 31 31 31 31 32 33 33 32 32 35 39 41 43 44 45 45 45 45 46 47 48 50 51 53 54 56 57 58 60 64 66 67 68 68 67 66 66 63 61 62 65 66 69 73 78 86 92 98 107 119 130 140 149 151 150 149 148 149 153 157 160 160 158 160 165 168 169 174
38 37 37 36 35 35 36 38 38 37 37 38 36 33 31 29 29 32 35 36 37 38 38 38 37 37 37 38 40 42 43 44 45 46 46 46 48 49 50 51 52 53 53 55 56 57 60 63 65 67 69 68 68 68 65 61 58 58 61 66 72 76 80 85 89 94 102 108 114 121 126 127 127 126 127 131 136 138 141 143 147 152 158 163 167
39 39 39 38 37 36 36 37 39 39 39 39 38 36 34 32 33 36 38 38 38 39 40 40 41 42 42 42 42 43 43 44 45 46 47 47 47 48 49 49 50 51 51 52 53 54 56 58 60 63 66 67 68 68 68 65 62 59 58 61 67 71 75 78 80 84 90 96 101 107 110 112 113 113 113 116 120 121 122 128 134 138 145 152 160